Retour au catalogue

FENGYUN 1C DEB

ActifPO
NORAD 30119·DEBRIS·🇨🇳 China

Lancé May 10, 1999 depuis Taiyuan Satellite Launch Center

Loading…

Prochains Passages (prochaines 24 heures)

TLE

FraisSource: Space-Track

Époque: Sep 13, 2026, 20:25 UTC

1 30119U 99025RY  26256.85116183  .00001455  00000-0  59989-3 0  9991
2 30119  97.9389 228.7718 0127488 197.7586 224.4094 14.23817850 10745

Suivez FENGYUN 1C DEB en temps réel avec AllMySat

Download on the App Store